Theta_e
312 312 313 313 310 312 313 314 315 314 313 312 311 311 311 307 305 304 303 303 303 302 301 303 305 306 310 311 312 313 314 314 315 315 311 309 310 311 311 311 311 311 311 310
312 312 312 312 312 312 313 314 313 312 312 311 311 311 309 308 307 307 306 305 304 300 299 301 304 306 309 310 311 311 314 312 308 309 308 308 305 305 305 306 307 306 305 303
314 315 313 313 314 314 313 313 313 315 313 311 311 312 311 310 308 307 308 307 305 303 300 300 302 305 307 309 310 310 311 309 306 309 308 304 302 300 299 301 301 300 297 295
313 313 314 314 314 314 316 312 314 315 315 316 311 317 313 311 310 308 309 307 305 302 300 301 302 303 306 308 310 309 308 308 307 306 306 306 300 295 294 295 294 293 292 291
314 314 315 314 315 313 315 313 313 314 313 313 313 313 314 311 312 311 311 307 304 301 300 301 302 304 306 308 309 309 309 306 304 305 304 300 295 295 292 291 290 289 289 289
312 311 312 314 312 313 311 313 312 311 312 315 314 314 315 313 314 312 312 308 303 300 300 301 302 304 306 308 307 308 308 305 304 303 302 298 299 292 289 289 288 288 287 287
313 312 312 310 313 312 312 314 317 318 315 318 312 313 316 313 313 311 312 307 301 300 299 300 299 301 301 303 304 304 303 301 301 301 299 297 296 292 290 288 287 286 286 286
316 316 312 310 313 314 312 313 316 316 318 317 312 316 316 311 310 309 306 305 300 299 299 299 300 300 299 300 301 302 301 300 298 298 296 294 292 290 289 289 288 287 287 286
314 315 311 310 311 313 312 314 314 318 301 310 316 314 313 309 309 307 307 303 299 299 299 298 298 298 297 297 298 300 299 298 297 296 295 292 291 290 289 288 288 287 287 286
314 317 311 310 311 311 311 310 315 313 315 317 317 316 319 315 311 309 306 303 299 298 296 296 296 295 295 296 297 298 299 298 297 295 294 292 290 289 289 288 287 287 286 285
313 317 313 310 312 314 313 313 313 314 312 315 315 319 311 314 311 310 308 303 299 298 295 295 294 294 294 294 295 296 296 296 294 294 293 291 290 289 288 287 287 286 285 285
312 316 312 313 310 308 311 314 313 317 316 315 315 320 308 310 310 309 308 303 300 298 295 293 293 292 291 291 292 291 292 293 293 292 292 290 290 289 288 287 286 286 285 285
314 318 318 317 316 310 312 312 315 314 310 318 317 320 305 307 310 308 306 302 300 297 294 293 292 291 291 290 290 290 290 291 291 291 291 290 289 288 287 287 286 285 285 284
315 316 317 323 319 314 313 311 312 316 318 318 318 320 314 309 310 308 305 301 299 297 295 293 292 291 291 290 289 289 289 290 290 290 290 289 289 288 287 286 285 284 284 285
318 321 318 317 314 312 312 314 313 316 317 320 319 317 317 315 310 310 305 301 299 297 295 294 293 292 291 290 289 289 289 289 289 289 288 289 288 287 286 285 285 284 284 285
316 320 317 319 315 315 317 316 310 313 315 316 317 317 313 312 311 309 305 302 300 299 297 296 295 293 292 291 289 288 288 288 289 288 287 287 287 286 286 285 284 284 284 285
316 317 316 322 317 316 319 319 318 317 312 313 316 315 314 311 310 310 309 303 302 301 299 297 295 294 293 291 290 289 288 288 288 287 287 287 286 286 286 285 284 284 284 284
313 315 317 322 317 321 317 313 316 317 317 316 313 313 313 311 311 309 306 303 302 302 301 298 296 295 293 292 290 289 288 288 287 287 287 286 286 286 286 285 285 284 284 284
312 312 317 320 321 317 315 308 310 313 316 313 315 315 315 313 305 310 303 303 304 302 301 300 298 296 293 291 290 288 287 287 287 287 287 287 287 286 286 285 285 284 284 284
305 312 315 316 319 322 311 302 301 308 316 300 310 313 311 304 311 314 308 300 299 299 299 298 297 295 291 290 289 288 287 287 287 287 287 287 287 287 286 286 285 285 285 285
307 306 314 316 318 315 307 298 299 314 310 290 294 296 302 304 306 298 296 298 296 296 296 296 295 292 290 290 289 288 287 287 288 287 287 288 288 287 287 286 286 286 285 283
309 311 309 311 314 315 299 298 309 303 295 293 299 299 298 297 296 296 295 295 294 294 294 294 293 292 291 289 289 288 288 289 289 289 288 288 288 287 286 286 287 284 283 283
306 306 307 309 310 299 295 298 295 295 297 295 295 297 295 295 295 294 294 293 291 291 291 294 293 292 290 289 290 290 291 291 289 289 288 288 287 287 287 285 284 283 282 282
301 299 302 305 301 297 296 294 295 292 292 291 291 293 293 293 292 291 289 290 289 287 289 292 292 289 289 292 293 294 290 289 288 287 287 286 286 285 285 285 284 283 282 281
298 299 299 300 298 295 296 294 296 293 290 290 290 291 292 290 288 289 286 285 286 286 287 289 289 289 289 290 290 290 291 290 288 287 286 286 285 285 284 284 284 283 283 283
294 298 303 304 300 300 298 295 295 296 292 289 290 290 288 289 288 286 285 285 285 285 286 287 288 288 288 289 289 289 289 289 289 287 286 285 285 284 283 283 281 280 280 280
Wind_Speed
1 3 7 14 9 4 4 4 5 4 4 6 9 11 14 10 7 9 10 12 13 15 13 22 20 17 17 17 19 20 23 26 30 33 33 30 30 27 26 24 23 23 23 22
4 8 16 4 5 6 5 5 9 6 5 7 8 12 10 6 10 14 18 16 17 8 10 18 22 21 22 23 22 23 25 29 28 28 28 32 33 28 28 26 24 22 22 22
9 7 7 9 6 6 8 8 5 8 3 3 5 9 8 9 10 8 18 18 16 19 17 13 21 25 24 25 26 27 28 28 26 28 30 33 29 30 29 27 26 24 24 25
8 6 6 6 7 9 8 7 6 6 1 5 4 9 6 6 11 9 18 16 16 14 14 15 21 26 30 28 27 27 28 29 29 31 34 38 37 32 25 31 29 28 26 26
9 7 8 6 7 10 7 3 5 2 3 1 3 5 5 5 8 12 19 14 14 16 20 19 24 28 32 31 31 32 31 29 29 31 35 34 32 33 36 33 32 30 27 25
3 1 7 8 3 7 7 5 5 4 2 5 10 9 6 7 13 7 14 9 14 15 16 16 22 27 31 33 32 33 33 31 30 31 34 35 39 42 40 36 35 31 29 26
3 5 3 4 5 3 5 7 2 3 1 8 4 7 18 5 7 11 15 10 12 14 16 15 15 24 27 34 34 34 34 33 32 32 35 36 40 44 43 41 38 35 31 28
10 6 13 7 11 8 9 9 6 7 5 5 1 8 6 10 9 9 8 7 9 11 14 16 20 26 28 32 34 34 34 34 34 35 35 38 41 43 41 40 38 35 32 29
7 7 1 1 4 13 6 9 6 1 2 2 6 8 9 8 9 9 14 5 9 12 13 14 18 24 27 30 34 36 36 36 37 36 38 41 41 41 41 38 35 34 31 30
5 3 1 1 4 4 6 7 2 1 2 6 5 7 11 5 10 13 8 8 9 8 9 11 16 23 26 32 35 37 38 38 39 39 41 43 42 40 39 38 37 35 33 30
5 4 0 4 6 12 3 5 3 5 5 5 3 8 7 10 10 8 10 9 9 12 13 14 15 21 25 30 36 38 39 40 41 41 43 45 42 40 39 39 37 35 33 30
10 1 4 8 2 2 2 6 7 5 6 6 2 17 4 7 6 8 8 8 9 12 12 12 16 22 24 28 32 34 36 40 42 43 45 44 42 41 40 38 37 35 33 30
9 5 1 4 2 1 6 8 18 3 3 15 6 13 2 1 2 2 6 5 6 9 10 11 14 19 23 26 28 30 35 38 42 43 43 43 42 41 40 39 37 35 33 31
6 6 9 12 4 6 9 9 13 18 9 8 18 29 12 5 3 4 4 5 8 10 13 13 13 18 25 28 30 33 35 39 42 43 44 44 43 44 43 41 38 36 34 32
10 8 14 21 2 4 4 16 19 22 32 12 31 17 32 14 9 11 7 7 8 10 13 16 16 14 24 29 32 32 34 38 43 42 44 46 45 43 42 41 39 37 35 32
6 6 10 20 13 8 6 8 12 20 23 20 28 27 4 6 5 5 10 10 13 15 17 18 17 18 26 32 34 36 36 40 43 40 39 40 43 42 41 40 39 37 35 32
9 6 5 13 8 8 6 32 22 16 12 20 21 35 19 7 9 13 13 12 14 15 18 17 20 20 28 33 36 36 37 38 40 39 38 41 43 43 42 40 39 38 36 33
8 11 6 9 6 10 12 7 22 27 27 27 24 29 23 16 19 18 5 9 15 15 15 16 16 26 31 31 33 33 36 39 39 36 37 38 41 41 40 40 39 38 36 35
7 7 4 6 10 5 10 6 8 10 19 20 23 29 28 23 6 22 9 12 14 15 16 19 26 25 28 32 32 33 33 34 35 34 36 41 42 40 41 42 41 39 36 35
1 9 9 4 4 7 3 2 2 6 12 4 15 23 16 6 5 17 4 6 10 9 14 17 24 26 28 30 36 35 33 36 35 37 41 41 42 42 43 43 42 39 39 39
5 2 13 12 6 4 6 4 1 6 6 2 2 3 5 6 6 5 7 6 4 2 12 21 27 27 30 36 36 29 29 31 37 33 33 36 41 42 44 43 40 39 41 41
10 9 5 4 5 8 8 4 9 4 2 2 2 2 4 6 6 4 4 4 5 6 11 19 21 20 24 31 32 23 26 32 29 30 32 35 38 39 38 38 39 41 38 37
3 5 6 8 6 2 1 5 3 3 4 3 2 2 3 3 2 1 1 3 4 5 8 12 17 20 20 25 26 22 22 22 25 28 32 35 37 38 40 38 35 35 36 35
3 0 2 3 2 2 1 1 1 1 1 1 3 2 2 3 2 0 2 2 3 4 8 10 15 15 17 22 24 23 22 24 28 30 31 33 34 35 35 33 34 34 34 34
3 4 4 5 3 3 6 5 5 4 1 0 1 2 2 2 1 1 2 2 4 6 8 14 16 17 18 19 19 16 16 20 22 24 26 27 28 29 30 30 32 32 32 33
5 7 5 5 3 2 1 2 9 8 6 5 2 2 2 1 4 4 4 3 4 9 12 14 14 17 16 15 14 12 10 13 16 18 19 21 23 24 25 27 25 23 23 22
Wind_Direction
136 122 202 210 200 175 174 195 243 250 219 183 227 240 255 211 231 236 228 222 218 218 195 195 194 193 188 186 184 182 181 175 169 162 154 149 142 141 139 139 140 140 143 143
70 225 227 157 196 224 242 248 260 293 241 186 255 251 245 207 223 220 226 224 219 191 183 187 190 189 190 187 187 182 184 177 167 164 164 154 147 143 140 141 143 143 140 136
179 211 166 170 181 189 233 220 231 232 340 257 319 270 234 243 230 225 234 231 219 206 183 181 183 191 190 190 188 184 180 172 174 172 164 151 145 139 137 141 140 140 137 133
236 224 159 170 200 174 231 211 201 239 141 255 144 284 233 246 242 225 241 226 219 187 184 180 181 188 192 192 187 181 175 182 185 179 169 163 154 146 148 144 138 137 136 131
230 184 187 189 197 173 232 177 202 233 202 348 213 281 263 215 249 247 247 226 206 193 183 181 184 184 189 184 180 177 179 184 182 181 174 167 155 152 147 142 139 136 134 131
227 163 168 194 121 169 147 85 48 51 48 260 218 208 200 202 224 245 250 222 197 188 186 179 178 175 181 181 181 184 184 185 184 183 180 175 164 154 148 147 143 141 138 134
139 211 200 159 112 71 132 120 288 317 323 247 293 225 252 285 243 223 250 232 198 182 176 168 167 173 175 179 182 181 183 182 186 186 184 178 167 161 157 155 150 146 143 140
189 271 172 196 193 168 195 164 164 216 213 270 358 242 253 230 275 256 266 266 171 177 181 178 177 175 175 178 180 181 185 184 186 184 182 177 169 164 161 159 156 153 150 146
177 259 154 181 151 163 198 212 170 350 92 360 226 279 275 253 274 264 254 148 175 185 185 179 173 177 177 179 181 183 183 183 182 182 180 177 173 169 166 163 160 156 153 151
212 276 32 144 104 32 159 164 96 15 222 255 269 270 235 230 239 252 264 211 198 174 167 174 178 180 180 183 185 189 191 187 185 185 184 181 177 174 169 166 164 161 158 155
195 167 223 120 207 170 147 190 179 141 160 195 295 261 215 213 218 237 254 221 186 185 183 181 180 182 182 187 188 191 192 188 186 187 185 182 180 178 173 171 167 165 162 161
199 197 180 201 226 270 328 208 162 162 215 234 159 263 176 172 195 204 256 211 191 187 181 179 177 174 178 183 187 187 189 190 188 187 185 183 181 180 177 174 171 170 168 167
175 184 5 307 350 30 215 210 207 105 74 224 162 257 62 313 263 282 244 211 175 170 170 177 176 181 181 183 184 186 189 188 188 186 185 184 183 182 180 177 176 175 172 171
149 167 197 223 183 146 193 203 205 208 230 213 232 260 224 201 186 253 252 191 190 180 183 186 192 190 185 182 184 187 189 191 190 188 187 187 188 187 184 181 180 179 179 178
157 234 223 244 167 149 214 211 205 208 227 204 251 242 261 242 229 245 217 197 178 188 193 198 198 192 188 185 184 187 190 191 190 188 190 192 190 190 187 185 184 183 185 187
160 240 206 257 226 217 254 252 218 227 239 236 255 261 132 187 225 212 220 197 200 203 209 204 197 193 193 192 188 184 185 189 191 190 193 193 193 192 192 189 188 188 190 191
166 190 183 246 201 206 229 236 231 231 229 223 235 246 252 259 243 244 239 208 207 210 213 205 203 199 196 194 191 189 185 184 187 189 191 196 196 195 196 195 193 195 195 194
176 189 200 247 142 215 240 185 222 223 236 232 242 255 257 245 253 263 217 203 219 215 215 209 203 201 198 191 189 187 183 184 185 188 193 196 196 196 197 199 200 201 202 201
211 178 210 216 223 295 289 196 160 167 246 231 228 245 255 260 334 277 213 227 228 210 216 212 203 195 182 181 181 178 177 182 185 188 193 198 199 197 202 203 205 208 207 209
221 228 207 185 217 219 285 279 145 107 259 214 207 232 252 113 256 272 271 235 243 220 200 176 176 173 168 174 177 173 176 182 190 193 198 200 203 204 207 211 210 212 215 221
146 184 215 227 242 261 239 178 212 147 250 274 163 184 166 192 221 307 322 313 347 129 140 156 159 162 173 177 175 175 177 188 197 195 198 206 210 210 216 215 215 222 222 223
169 173 187 192 216 240 155 104 176 182 109 188 268 247 254 243 287 322 358 26 61 97 117 144 141 153 173 180 172 171 187 201 201 205 207 212 215 212 212 217 223 223 223 223
224 197 181 187 205 358 289 15 58 123 125 193 223 299 279 268 282 127 96 38 40 55 97 131 141 144 166 178 180 179 201 203 200 205 211 213 216 216 218 211 214 221 222 222
266 8 187 80 278 237 245 160 62 308 125 305 275 242 217 242 214 176 160 128 93 109 135 145 148 151 162 184 190 203 202 199 200 200 205 210 211 212 217 219 222 221 221 220
167 130 169 272 242 296 241 203 169 168 141 271 297 321 264 161 253 173 160 122 127 120 131 156 159 156 161 171 181 189 191 193 195 201 205 207 211 214 215 218 222 224 230 231
185 179 179 213 206 137 62 232 190 160 183 204 180 98 70 149 153 116 86 84 104 123 136 134 140 144 150 159 159 162 172 191 196 198 204 209 211 214 217 217 218 226 235 238